QPF
0.00 0.00 0.00 0.00 0.00 0.00 0.00 0.00 0.00 0.00 0.00 0.00 0.00 0.00 0.00 0.00 0.00 0.00 0.01 0.11 0.07 0.06 0.02 0.00 0.01 0.04 0.00 0.00 0.00 0.00 0.00 0.00 0.00 0.00 0.00 0.00 0.00 0.00 0.00 0.01 0.01 0.00 0.00 0.00 0.00
0.00 0.00 0.00 0.00 0.00 0.00 0.00 0.00 0.00 0.00 0.00 0.00 0.00 0.00 0.00 0.00 0.00 0.00 0.03 0.17 0.08 0.03 0.00 0.00 0.02 0.10 0.03 0.00 0.00 0.00 0.00 0.00 0.00 0.00 0.00 0.00 0.00 0.00 0.00 0.00 0.00 0.00 0.00 0.00 0.00
0.00 0.00 0.00 0.00 0.00 0.00 0.00 0.00 0.00 0.00 0.00 0.00 0.00 0.00 0.00 0.00 0.00 0.00 0.01 0.02 0.02 0.00 0.00 0.00 0.01 0.08 0.04 0.00 0.00 0.00 0.00 0.00 0.00 0.00 0.00 0.00 0.00 0.02 0.01 0.03 0.00 0.00 0.00 0.00 0.00
0.00 0.00 0.00 0.00 0.00 0.00 0.00 0.00 0.00 0.00 0.00 0.00 0.00 0.00 0.00 0.00 0.00 0.00 0.00 0.00 0.00 0.00 0.00 0.00 0.03 0.04 0.04 0.01 0.00 0.00 0.00 0.00 0.00 0.00 0.00 0.00 0.00 0.00 0.00 0.00 0.00 0.00 0.00 0.00 0.00
0.00 0.00 0.00 0.00 0.00 0.00 0.00 0.00 0.00 0.00 0.00 0.00 0.00 0.00 0.00 0.00 0.00 0.00 0.00 0.00 0.00 0.00 0.00 0.01 0.01 0.04 0.05 0.02 0.00 0.00 0.00 0.00 0.00 0.00 0.00 0.00 0.00 0.00 0.01 0.02 0.00 0.00 0.00 0.00 0.00
0.00 0.00 0.00 0.00 0.00 0.00 0.00 0.00 0.00 0.00 0.00 0.00 0.00 0.00 0.00 0.00 0.00 0.00 0.00 0.00 0.00 0.00 0.00 0.00 0.02 0.03 0.04 0.02 0.00 0.00 0.00 0.00 0.00 0.00 0.00 0.00 0.00 0.00 0.01 0.04 0.00 0.00 0.01 0.00 0.00
0.00 0.00 0.00 0.00 0.00 0.00 0.00 0.00 0.00 0.00 0.00 0.00 0.00 0.00 0.00 0.00 0.00 0.00 0.00 0.00 0.00 0.00 0.00 0.00 0.00 0.06 0.04 0.02 0.00 0.00 0.00 0.00 0.00 0.00 0.00 0.00 0.00 0.00 0.02 0.05 0.01 0.00 0.01 0.01 0.00
0.00 0.00 0.00 0.00 0.00 0.00 0.00 0.00 0.00 0.00 0.00 0.00 0.00 0.00 0.00 0.00 0.00 0.00 0.00 0.00 0.00 0.00 0.00 0.00 0.00 0.02 0.05 0.04 0.00 0.00 0.00 0.00 0.00 0.00 0.00 0.00 0.00 0.00 0.01 0.05 0.06 0.07 0.02 0.02 0.01
0.00 0.00 0.00 0.00 0.00 0.00 0.00 0.00 0.00 0.00 0.00 0.00 0.00 0.00 0.00 0.00 0.00 0.00 0.00 0.00 0.00 0.00 0.00 0.00 0.00 0.00 0.00 0.12 0.06 0.00 0.00 0.00 0.00 0.00 0.00 0.00 0.00 0.00 0.00 0.03 0.03 0.06 0.07 0.04 0.02
0.00 0.00 0.00 0.00 0.00 0.00 0.00 0.00 0.00 0.00 0.00 0.00 0.00 0.00 0.00 0.00 0.00 0.00 0.00 0.00 0.00 0.00 0.00 0.00 0.00 0.00 0.00 0.01 0.06 0.01 0.00 0.00 0.00 0.00 0.00 0.00 0.00 0.00 0.00 0.06 0.11 0.11 0.05 0.02 0.05
0.00 0.00 0.00 0.00 0.00 0.00 0.00 0.00 0.00 0.00 0.00 0.00 0.00 0.00 0.00 0.00 0.00 0.00 0.00 0.00 0.00 0.00 0.00 0.00 0.00 0.00 0.00 0.00 0.00 0.00 0.00 0.00 0.00 0.00 0.00 0.00 0.00 0.00 0.00 0.02 0.04 0.05 0.04 0.08 0.05
0.00 0.00 0.00 0.00 0.00 0.00 0.00 0.00 0.00 0.00 0.00 0.00 0.00 0.00 0.00 0.00 0.00 0.00 0.00 0.00 0.00 0.00 0.00 0.00 0.00 0.00 0.00 0.00 0.00 0.00 0.00 0.00 0.00 0.00 0.00 0.00 0.00 0.00 0.00 0.02 0.06 0.07 0.03 0.02 0.00
0.00 0.00 0.00 0.00 0.00 0.00 0.00 0.00 0.00 0.00 0.00 0.00 0.00 0.00 0.00 0.00 0.00 0.00 0.00 0.00 0.00 0.00 0.00 0.00 0.00 0.00 0.00 0.00 0.00 0.00 0.00 0.00 0.00 0.00 0.00 0.00 0.00 0.00 0.00 0.01 0.03 0.07 0.10 0.05 0.00
0.00 0.00 0.00 0.00 0.00 0.00 0.00 0.00 0.00 0.00 0.00 0.00 0.00 0.00 0.00 0.00 0.00 0.00 0.00 0.00 0.00 0.00 0.00 0.00 0.00 0.00 0.00 0.00 0.00 0.00 0.00 0.00 0.00 0.00 0.00 0.00 0.00 0.00 0.00 0.00 0.00 0.00 0.01 0.01 0.01
0.00 0.00 0.00 0.00 0.00 0.00 0.00 0.00 0.00 0.00 0.00 0.00 0.00 0.00 0.00 0.00 0.00 0.00 0.00 0.00 0.00 0.00 0.00 0.00 0.00 0.00 0.00 0.00 0.00 0.00 0.00 0.00 0.00 0.00 0.00 0.00 0.00 0.00 0.00 0.00 0.00 0.00 0.00 0.00 0.00
0.00 0.00 0.00 0.00 0.00 0.00 0.00 0.00 0.00 0.00 0.00 0.00 0.00 0.00 0.00 0.00 0.00 0.00 0.00 0.00 0.00 0.00 0.00 0.00 0.00 0.00 0.00 0.00 0.00 0.00 0.00 0.00 0.00 0.00 0.00 0.00 0.00 0.00 0.00 0.00 0.00 0.00 0.00 0.00 0.00
0.00 0.00 0.00 0.00 0.00 0.00 0.00 0.00 0.00 0.00 0.00 0.00 0.00 0.00 0.00 0.00 0.00 0.00 0.00 0.00 0.00 0.00 0.00 0.00 0.00 0.00 0.00 0.00 0.00 0.00 0.00 0.00 0.01 0.00 0.00 0.00 0.00 0.00 0.00 0.00 0.00 0.00 0.00 0.00 0.00
0.00 0.00 0.00 0.00 0.00 0.00 0.00 0.00 0.00 0.00 0.00 0.00 0.00 0.00 0.00 0.00 0.00 0.00 0.00 0.00 0.00 0.00 0.00 0.00 0.00 0.00 0.00 0.00 0.00 0.00 0.00 0.00 0.00 0.00 0.00 0.00 0.00 0.00 0.00 0.00 0.00 0.00 0.00 0.00 0.00
0.00 0.00 0.00 0.00 0.00 0.00 0.00 0.00 0.00 0.00 0.00 0.00 0.00 0.00 0.00 0.00 0.00 0.00 0.00 0.00 0.00 0.00 0.00 0.00 0.00 0.00 0.00 0.00 0.00 0.00 0.00 0.00 0.00 0.00 0.00 0.00 0.00 0.00 0.00 0.00 0.00 0.00 0.00 0.00 0.00
0.00 0.00 0.00 0.00 0.00 0.00 0.00 0.00 0.00 0.00 0.00 0.00 0.00 0.00 0.00 0.00 0.00 0.00 0.00 0.00 0.00 0.00 0.00 0.00 0.00 0.00 0.00 0.00 0.00 0.00 0.00 0.00 0.00 0.00 0.00 0.00 0.00 0.00 0.00 0.00 0.00 0.00 0.00 0.00 0.00
0.00 0.00 0.00 0.00 0.00 0.00 0.00 0.00 0.00 0.00 0.00 0.00 0.00 0.00 0.00 0.00 0.00 0.00 0.00 0.00 0.00 0.00 0.00 0.00 0.00 0.00 0.00 0.00 0.00 0.00 0.00 0.00 0.00 0.00 0.00 0.00 0.00 0.00 0.00 0.00 0.00 0.00 0.00 0.00 0.00
0.00 0.00 0.00 0.00 0.00 0.00 0.00 0.00 0.00 0.00 0.00 0.00 0.00 0.00 0.00 0.00 0.00 0.00 0.00 0.00 0.00 0.00 0.00 0.00 0.00 0.00 0.00 0.00 0.00 0.00 0.00 0.00 0.00 0.00 0.00 0.00 0.00 0.00 0.00 0.00 0.00 0.00 0.00 0.00 0.00
0.00 0.00 0.00 0.00 0.00 0.00 0.00 0.00 0.00 0.00 0.00 0.00 0.00 0.00 0.00 0.00 0.00 0.00 0.00 0.00 0.00 0.00 0.00 0.00 0.00 0.00 0.00 0.00 0.00 0.00 0.00 0.00 0.00 0.00 0.00 0.00 0.00 0.00 0.00 0.00 0.00 0.00 0.00 0.00 0.00
0.00 0.00 0.00 0.00 0.00 0.00 0.00 0.00 0.00 0.00 0.00 0.00 0.00 0.00 0.00 0.00 0.00 0.00 0.00 0.00 0.00 0.00 0.00 0.00 0.00 0.00 0.00 0.00 0.00 0.00 0.00 0.00 0.00 0.00 0.00 0.00 0.00 0.00 0.00 0.00 0.00 0.00 0.00 0.00 0.00
0.00 0.00 0.00 0.00 0.00 0.00 0.00 0.00 0.00 0.00 0.00 0.00 0.00 0.00 0.00 0.00 0.00 0.00 0.00 0.00 0.00 0.00 0.00 0.00 0.00 0.00 0.00 0.00 0.00 0.00 0.00 0.00 0.00 0.00 0.00 0.00 0.00 0.00 0.00 0.00 0.00 0.00 0.00 0.00 0.00
0.00 0.00 0.00 0.00 0.00 0.00 0.00 0.00 0.00 0.00 0.00 0.00 0.00 0.00 0.00 0.00 0.00 0.00 0.00 0.00 0.00 0.00 0.00 0.00 0.00 0.00 0.00 0.00 0.00 0.00 0.00 0.00 0.00 0.00 0.00 0.00 0.00 0.00 0.00 0.00 0.00 0.00 0.00 0.00 0.00
0.00 0.00 0.00 0.00 0.00 0.00 0.00 0.00 0.00 0.00 0.00 0.00 0.00 0.00 0.00 0.00 0.00 0.00 0.00 0.00 0.00 0.00 0.00 0.00 0.00 0.00 0.00 0.00 0.00 0.00 0.00 0.00 0.00 0.00 0.00 0.00 0.00 0.00 0.00 0.00 0.00 0.00 0.00 0.00 0.00
MSLP
1022.54 1022.22 1021.99 1021.75 1021.49 1021.21 1020.95 1020.71 1020.37 1020.10 1019.72 1019.34 1018.94 1018.49 1018.43 1018.38 1018.32 1017.89 1017.95 1018.38 1017.83 1017.13 1016.99 1016.76 1016.80 1016.67 1016.32 1016.01 1015.97 1015.34 1013.50 1011.55 1011.11 1010.47 1009.99 1010.39 1010.48 1011.01 1011.43 1011.44 1012.19 1012.66 1012.53 1013.20 1015.43
1022.54 1022.24 1021.97 1021.71 1021.47 1021.23 1020.95 1020.57 1020.30 1020.04 1019.68 1019.34 1019.03 1018.77 1018.66 1018.61 1018.31 1018.18 1018.61 1018.02 1017.58 1017.32 1016.81 1016.44 1016.31 1016.50 1016.32 1015.94 1015.87 1015.02 1013.45 1012.22 1012.04 1011.93 1010.94 1011.06 1010.76 1011.34 1011.34 1011.56 1012.33 1013.01 1013.82 1014.19 1015.34
1022.47 1022.17 1021.89 1021.60 1021.38 1021.18 1020.80 1020.42 1020.20 1019.90 1019.62 1019.27 1019.04 1018.92 1018.77 1018.55 1018.24 1018.36 1018.50 1018.05 1017.58 1017.38 1016.87 1016.70 1016.67 1016.59 1016.39 1016.30 1015.85 1015.19 1013.86 1013.26 1013.22 1012.85 1012.56 1011.92 1011.56 1011.52 1011.12 1011.18 1011.28 1012.01 1013.49 1014.63 1015.37
1022.38 1022.16 1021.88 1021.55 1021.30 1021.07 1020.70 1020.35 1020.08 1019.83 1019.59 1019.31 1019.05 1018.89 1018.73 1018.30 1018.37 1018.52 1018.55 1018.12 1017.69 1017.42 1017.03 1016.76 1016.67 1016.53 1016.39 1016.14 1015.77 1015.53 1014.93 1014.25 1013.78 1013.61 1013.20 1012.34 1011.81 1011.39 1011.24 1010.97 1010.80 1012.04 1013.58 1014.39 1015.29
1022.38 1022.15 1021.89 1021.62 1021.31 1021.02 1020.62 1020.24 1020.01 1019.83 1019.58 1019.41 1019.11 1018.88 1018.66 1018.21 1018.51 1018.71 1018.63 1018.19 1017.67 1017.43 1017.24 1016.91 1016.74 1016.61 1016.49 1016.46 1016.18 1015.56 1015.12 1014.64 1014.26 1014.05 1013.57 1012.85 1012.03 1011.56 1011.45 1012.11 1011.83 1012.54 1013.89 1014.48 1015.30
1022.27 1022.01 1021.81 1021.61 1021.26 1020.92 1020.53 1020.21 1019.93 1019.75 1019.59 1019.47 1019.15 1018.94 1018.56 1018.35 1018.96 1018.80 1018.53 1018.19 1017.97 1017.61 1017.58 1017.30 1017.00 1016.88 1016.96 1017.15 1016.80 1015.80 1015.39 1014.84 1014.37 1014.06 1013.66 1013.06 1012.26 1012.39 1011.92 1012.85 1012.71 1013.10 1013.92 1014.34 1014.85
1022.10 1021.88 1021.70 1021.49 1021.14 1020.71 1020.42 1020.02 1019.74 1019.55 1019.44 1019.41 1019.29 1019.01 1018.71 1019.22 1019.00 1018.74 1018.46 1018.24 1018.33 1018.11 1017.67 1017.72 1017.55 1017.22 1017.04 1017.08 1017.03 1016.38 1015.46 1014.76 1014.30 1013.90 1013.60 1013.34 1012.50 1011.86 1012.75 1013.04 1013.11 1013.17 1014.13 1014.67 1014.99
1022.06 1021.85 1021.61 1021.30 1020.90 1020.48 1020.14 1019.82 1019.46 1019.21 1019.25 1019.21 1019.25 1019.03 1018.88 1019.15 1019.09 1018.90 1018.40 1018.19 1017.96 1018.04 1017.99 1017.95 1017.68 1017.39 1017.37 1017.61 1017.11 1016.41 1015.61 1014.24 1013.45 1013.57 1013.48 1013.54 1011.61 1011.60 1013.11 1013.74 1013.85 1014.01 1014.19 1014.96 1015.12
1022.10 1021.76 1021.48 1021.14 1020.72 1020.31 1019.87 1019.48 1019.20 1019.02 1019.01 1019.02 1019.08 1018.94 1018.90 1019.19 1019.04 1019.01 1018.78 1018.36 1018.16 1017.97 1017.88 1017.81 1017.65 1017.32 1017.68 1018.00 1017.72 1016.76 1014.99 1014.26 1013.66 1013.42 1013.27 1013.22 1011.85 1012.36 1013.09 1013.74 1014.02 1014.33 1014.53 1014.75 1015.21
1022.06 1021.63 1021.25 1020.91 1020.53 1020.15 1019.71 1019.30 1019.08 1019.09 1019.05 1018.85 1018.87 1019.13 1019.16 1019.04 1019.05 1019.03 1018.89 1018.58 1018.18 1017.88 1017.72 1017.69 1017.66 1017.39 1017.29 1017.59 1017.19 1016.39 1015.56 1014.48 1013.53 1013.29 1013.06 1012.61 1012.37 1012.76 1013.25 1013.73 1013.94 1014.39 1014.50 1014.54 1014.78
1021.99 1021.53 1021.15 1020.75 1020.31 1019.94 1019.44 1019.25 1019.41 1019.34 1018.99 1018.65 1018.56 1018.43 1018.55 1018.99 1019.26 1019.01 1018.90 1018.58 1018.04 1017.87 1017.72 1018.05 1017.66 1017.18 1017.21 1017.38 1017.20 1016.70 1015.83 1014.64 1013.73 1013.49 1012.87 1012.29 1012.29 1012.22 1013.37 1013.81 1013.97 1014.25 1014.40 1014.53 1014.41
1021.93 1021.40 1020.98 1020.70 1020.22 1019.82 1019.55 1019.41 1019.71 1020.18 1019.16 1018.73 1018.65 1018.55 1018.57 1018.68 1018.70 1018.91 1019.27 1018.79 1018.27 1017.90 1018.09 1018.17 1017.70 1017.81 1017.97 1017.87 1017.54 1016.98 1016.11 1014.94 1014.22 1013.86 1013.30 1012.26 1012.14 1012.31 1013.03 1013.43 1013.66 1014.02 1014.38 1014.32 1014.40
1021.92 1021.42 1020.96 1020.51 1020.07 1019.93 1019.78 1020.20 1020.42 1020.14 1019.45 1018.69 1018.51 1018.32 1018.37 1018.68 1018.40 1018.35 1019.13 1019.02 1018.56 1018.35 1018.31 1018.00 1018.06 1018.14 1018.09 1017.88 1017.52 1016.87 1016.23 1015.24 1014.51 1014.15 1013.69 1012.71 1012.09 1012.25 1012.39 1013.07 1013.58 1013.79 1014.08 1014.25 1014.06
1021.88 1021.30 1020.93 1020.54 1020.47 1020.39 1020.31 1020.51 1020.51 1020.43 1019.58 1018.73 1018.31 1018.13 1018.47 1018.47 1018.41 1018.70 1018.62 1019.26 1018.92 1018.65 1018.64 1018.59 1018.48 1018.39 1018.10 1017.66 1017.54 1016.76 1016.18 1015.97 1015.38 1014.72 1013.66 1013.46 1011.58 1010.99 1011.49 1012.03 1012.60 1012.99 1013.39 1013.40 1013.93
1021.75 1021.23 1020.79 1020.49 1020.40 1020.51 1021.05 1020.74 1020.55 1020.33 1019.60 1018.68 1018.14 1018.01 1018.15 1018.38 1018.38 1018.50 1019.00 1018.71 1018.85 1018.89 1019.13 1018.87 1018.72 1018.46 1018.14 1017.67 1017.44 1016.69 1016.50 1015.94 1015.73 1015.20 1014.53 1013.60 1012.79 1010.43 1011.04 1010.87 1010.88 1011.28 1011.66 1012.13 1012.68
1021.72 1021.18 1020.90 1020.56 1020.41 1020.85 1020.81 1020.73 1020.47 1020.11 1018.83 1018.15 1017.99 1017.85 1017.99 1017.93 1018.11 1018.54 1018.57 1018.95 1018.70 1018.97 1018.96 1018.75 1018.94 1018.69 1017.98 1017.86 1017.64 1017.28 1016.73 1016.34 1016.18 1015.85 1014.97 1013.57 1013.00 1010.44 1009.86 1009.13 1009.51 1010.14 1010.80 1011.15 1011.59
1021.62 1021.21 1020.72 1020.81 1020.76 1020.85 1020.89 1020.38 1020.25 1019.14 1018.69 1017.93 1017.73 1017.82 1017.72 1017.53 1017.63 1017.98 1018.20 1018.19 1018.24 1018.43 1018.43 1018.68 1018.58 1018.51 1018.29 1017.70 1017.54 1017.42 1016.63 1016.37 1016.39 1015.81 1014.70 1014.49 1013.44 1009.93 1009.16 1009.19 1008.76 1009.28 1009.88 1010.25 1010.83
1021.51 1021.04 1021.02 1021.00 1020.91 1020.94 1020.60 1020.04 1019.27 1017.71 1017.52 1017.68 1017.62 1017.71 1017.61 1017.28 1017.41 1017.49 1017.63 1017.58 1017.82 1017.96 1018.18 1017.99 1018.01 1018.08 1017.86 1017.54 1017.08 1016.90 1016.34 1015.87 1015.48 1015.03 1014.49 1014.60 1011.79 1009.64 1009.26 1009.36 1009.44 1009.49 1009.30 1009.78 1010.25
1021.31 1020.93 1020.69 1020.79 1021.01 1020.74 1020.50 1019.76 1017.58 1017.15 1017.06 1017.37 1017.65 1017.42 1017.09 1017.21 1017.35 1017.30 1017.02 1016.73 1016.74 1017.24 1017.10 1017.32 1017.39 1017.89 1017.98 1017.82 1017.63 1017.10 1016.69 1016.42 1015.80 1015.66 1014.39 1012.38 1010.80 1009.89 1009.17 1009.06 1009.33 1009.22 1009.56 1009.70 1010.16
1021.39 1021.03 1020.55 1020.72 1020.84 1020.54 1019.83 1019.12 1017.95 1017.53 1017.54 1017.44 1017.07 1016.85 1016.61 1016.80 1017.08 1016.99 1016.52 1016.17 1016.46 1017.06 1017.17 1016.82 1017.19 1017.61 1017.85 1017.97 1017.73 1017.28 1017.01 1016.45 1015.86 1014.82 1013.45 1011.65 1010.69 1009.36 1008.80 1008.46 1008.67 1008.96 1009.07 1009.35 1009.94
1021.45 1021.02 1020.96 1021.02 1020.57 1020.14 1019.17 1018.17 1017.64 1017.80 1018.06 1017.82 1017.06 1016.76 1016.39 1016.47 1016.67 1016.59 1016.15 1016.33 1016.32 1016.79 1017.23 1016.97 1016.93 1017.70 1017.84 1017.18 1016.64 1017.06 1016.36 1016.02 1015.37 1014.52 1013.29 1011.61 1009.93 1008.94 1008.51 1008.28 1008.40 1008.69 1009.44 1009.79 1010.23
1021.57 1020.92 1020.93 1021.00 1020.80 1019.76 1018.50 1017.34 1017.34 1017.27 1017.78 1017.89 1017.75 1016.72 1016.36 1016.17 1016.22 1016.32 1015.93 1015.94 1016.40 1016.54 1016.57 1016.77 1016.65 1016.27 1016.13 1016.40 1016.52 1016.28 1015.40 1014.99 1014.62 1014.38 1013.88 1012.74 1010.01 1008.95 1008.99 1009.21 1009.43 1009.51 1009.69 1009.83 1010.15
1021.44 1020.66 1020.63 1020.63 1019.74 1019.06 1018.32 1017.78 1017.00 1016.99 1017.06 1017.26 1017.22 1017.15 1016.63 1016.07 1016.08 1015.81 1015.90 1016.08 1016.38 1016.61 1016.47 1016.44 1016.34 1015.90 1015.65 1016.40 1016.37 1015.73 1015.24 1014.93 1014.62 1014.11 1012.87 1012.06 1009.58 1008.87 1009.16 1009.15 1009.29 1009.66 1009.79 1009.99 1010.19
1021.55 1020.56 1020.30 1019.86 1019.15 1018.38 1017.83 1017.36 1017.25 1016.67 1016.66 1016.75 1016.46 1016.79 1016.94 1016.26 1015.90 1015.45 1015.79 1016.08 1016.48 1016.59 1016.63 1016.58 1015.74 1014.95 1014.36 1014.15 1014.38 1014.74 1014.36 1014.55 1014.21 1013.31 1011.95 1010.67 1009.12 1008.28 1008.50 1008.92 1009.36 1009.67 1009.72 1010.06 1010.36
1021.30 1019.48 1019.28 1018.72 1018.19 1017.82 1017.55 1017.03 1016.70 1016.67 1016.44 1016.38 1016.51 1015.95 1015.82 1015.81 1015.54 1015.40 1015.45 1016.03 1016.55 1016.62 1016.71 1016.57 1015.51 1014.88 1014.16 1014.09 1014.07 1013.61 1013.44 1013.59 1013.40 1012.35 1011.35 1009.41 1008.89 1007.47 1007.91 1008.52 1008.90 1009.21 1009.66 1009.94 1010.13
1020.03 1019.85 1019.47 1018.48 1018.10 1017.72 1017.12 1016.47 1016.06 1015.69 1015.95 1015.76 1015.60 1015.03 1015.30 1014.92 1014.10 1014.20 1014.72 1015.39 1015.29 1016.41 1016.52 1016.51 1015.51 1015.10 1014.09 1013.55 1013.48 1013.02 1012.45 1012.33 1012.16 1011.68 1010.87 1010.03 1008.36 1008.18 1007.93 1008.29 1008.68 1008.85 1009.14 1009.23 1009.58
1019.31 1019.44 1018.97 1017.54 1017.52 1017.44 1016.27 1015.60 1015.32 1015.61 1015.00 1014.80 1014.87 1015.13 1015.18 1014.12 1014.27 1014.25 1014.38 1014.75 1015.13 1015.57 1016.03 1016.16 1015.55 1015.08 1013.76 1013.51 1013.11 1011.92 1010.11 1010.42 1010.32 1010.30 1009.95 1009.37 1007.28 1007.80 1007.95 1008.26 1008.51 1008.64 1008.81 1008.81 1009.10
Thickness
5640 5641 5641 5640 5638 5636 5632 5627 5622 5615 5607 5596 5582 5575 5568 5562 5557 5556 5549 5546 5549 5555 5558 5563 5566 5571 5581 5589 5598 5613 5623 5642 5654 5669 5693 5705 5706 5713 5720 5721 5722 5727 5736 5737 5723
5639 5639 5639 5637 5635 5632 5628 5625 5619 5611 5603 5592 5579 5570 5563 5557 5554 5548 5542 5545 5550 5552 5557 5561 5564 5568 5570 5580 5589 5601 5618 5636 5648 5658 5680 5688 5702 5699 5709 5712 5712 5716 5718 5725 5720
5637 5637 5637 5635 5633 5629 5626 5621 5616 5609 5599 5590 5577 5567 5561 5556 5552 5545 5541 5543 5547 5551 5558 5559 5560 5563 5565 5571 5582 5594 5609 5624 5630 5643 5659 5673 5686 5697 5703 5702 5721 5722 5715 5713 5714
5636 5635 5634 5633 5630 5627 5624 5620 5614 5607 5598 5588 5576 5566 5560 5558 5549 5546 5541 5542 5546 5549 5555 5557 5557 5557 5560 5565 5579 5580 5595 5609 5618 5628 5645 5661 5679 5688 5700 5709 5729 5722 5709 5708 5707
5634 5633 5632 5630 5628 5625 5622 5619 5612 5605 5596 5586 5575 5565 5562 5557 5548 5543 5542 5542 5545 5548 5550 5554 5555 5556 5557 5562 5569 5576 5586 5598 5609 5617 5634 5652 5667 5682 5690 5694 5707 5708 5702 5702 5702
5633 5632 5630 5628 5626 5624 5621 5617 5611 5603 5595 5585 5575 5566 5562 5555 5547 5543 5544 5543 5543 5546 5546 5550 5552 5556 5553 5551 5555 5573 5579 5590 5599 5609 5624 5636 5656 5663 5682 5682 5690 5693 5693 5700 5701
5633 5632 5630 5627 5626 5624 5620 5617 5612 5605 5595 5585 5576 5567 5559 5550 5548 5546 5546 5545 5541 5541 5545 5546 5548 5551 5553 5550 5555 5563 5571 5581 5591 5604 5612 5628 5640 5658 5667 5675 5677 5688 5684 5688 5694
5632 5631 5630 5628 5626 5624 5621 5617 5613 5607 5597 5588 5578 5570 5558 5552 5548 5547 5547 5547 5547 5544 5542 5543 5546 5548 5547 5547 5553 5556 5566 5574 5596 5600 5609 5616 5640 5663 5658 5658 5664 5672 5679 5680 5686
5630 5630 5629 5627 5626 5624 5623 5620 5614 5608 5600 5591 5582 5572 5561 5553 5550 5546 5545 5545 5545 5546 5544 5543 5544 5547 5544 5532 5533 5546 5564 5570 5580 5593 5602 5608 5635 5644 5651 5652 5657 5663 5668 5674 5676
5627 5628 5628 5627 5626 5624 5623 5621 5615 5607 5600 5594 5585 5574 5562 5556 5550 5546 5545 5544 5544 5545 5543 5541 5539 5542 5546 5538 5536 5546 5552 5565 5575 5586 5594 5607 5619 5630 5639 5643 5652 5655 5662 5669 5675
5625 5626 5626 5626 5625 5624 5623 5620 5615 5608 5601 5597 5590 5581 5571 5560 5549 5546 5545 5544 5546 5544 5538 5534 5536 5540 5543 5544 5545 5546 5553 5563 5577 5583 5591 5605 5613 5629 5626 5631 5641 5647 5655 5660 5669
5622 5624 5624 5623 5623 5622 5619 5618 5611 5603 5602 5595 5588 5582 5575 5566 5557 5547 5540 5541 5542 5540 5536 5533 5533 5535 5533 5535 5538 5543 5548 5560 5571 5577 5583 5600 5605 5618 5621 5627 5638 5642 5646 5655 5662
5618 5620 5621 5621 5621 5619 5617 5610 5601 5598 5600 5597 5591 5585 5578 5569 5563 5558 5542 5538 5539 5536 5532 5535 5534 5531 5531 5532 5535 5543 5547 5557 5565 5570 5577 5591 5597 5605 5618 5623 5626 5634 5641 5646 5656
5614 5616 5617 5617 5616 5612 5611 5603 5599 5595 5596 5599 5592 5589 5578 5572 5566 5557 5552 5538 5535 5535 5532 5531 5531 5527 5531 5534 5535 5540 5552 5550 5553 5559 5568 5575 5587 5612 5621 5621 5625 5631 5635 5645 5647
5612 5614 5614 5613 5612 5608 5600 5597 5595 5594 5593 5595 5593 5590 5581 5573 5568 5561 5550 5546 5537 5533 5530 5529 5527 5528 5530 5535 5536 5544 5543 5552 5552 5555 5562 5574 5572 5614 5609 5616 5631 5640 5646 5652 5656
5607 5610 5610 5609 5607 5600 5597 5594 5593 5593 5592 5594 5591 5588 5582 5577 5571 5560 5557 5546 5542 5531 5529 5532 5527 5527 5535 5532 5532 5536 5542 5546 5547 5547 5550 5573 5570 5597 5609 5633 5641 5644 5644 5653 5659
5601 5603 5604 5601 5605 5597 5592 5595 5589 5589 5589 5597 5592 5586 5581 5580 5574 5566 5558 5553 5549 5536 5531 5530 5532 5530 5531 5536 5535 5534 5544 5534 5532 5539 5557 5517 5550 5609 5625 5624 5642 5644 5646 5654 5658
5595 5598 5595 5593 5592 5590 5591 5595 5584 5605 5598 5588 5586 5581 5581 5581 5575 5569 5564 5560 5550 5546 5532 5536 5536 5532 5535 5538 5542 5541 5548 5546 5541 5546 5561 5534 5572 5602 5618 5616 5621 5629 5645 5650 5655
5588 5591 5590 5587 5583 5584 5588 5581 5607 5603 5599 5590 5582 5581 5585 5577 5572 5569 5568 5569 5565 5553 5554 5546 5543 5530 5527 5530 5533 5537 5539 5542 5540 5528 5550 5576 5587 5596 5608 5608 5611 5623 5628 5640 5648
5577 5580 5585 5579 5576 5578 5584 5582 5592 5588 5585 5584 5589 5589 5587 5578 5572 5569 5572 5574 5566 5553 5550 5555 5544 5533 5527 5524 5526 5531 5532 5538 5535 5539 5547 5572 5573 5585 5597 5612 5619 5620 5631 5640 5644
5565 5575 5570 5564 5567 5575 5576 5586 5584 5578 5574 5576 5583 5582 5584 5579 5572 5572 5575 5568 5565 5556 5548 5548 5547 5534 5527 5531 5537 5528 5535 5535 5542 5545 5551 5561 5578 5592 5595 5610 5620 5622 5622 5628 5634
5549 5563 5555 5552 5560 5560 5576 5584 5579 5580 5568 5566 5566 5574 5576 5575 5573 5567 5571 5571 5562 5559 5556 5551 5550 5546 5546 5535 5529 5531 5545 5549 5546 5542 5536 5539 5568 5586 5587 5591 5595 5606 5614 5622 5628
5536 5547 5541 5542 5556 5559 5561 5565 5572 5572 5571 5565 5563 5561 5564 5570 5567 5570 5566 5562 5557 5555 5554 5551 5551 5549 5550 5538 5527 5534 5537 5540 5537 5537 5546 5546 5572 5586 5582 5589 5597 5600 5611 5616 5621
5514 5531 5529 5532 5533 5549 5554 5560 5562 5559 5564 5558 5561 5557 5552 5556 5560 5569 5561 5556 5548 5551 5545 5545 5554 5561 5567 5565 5554 5539 5541 5536 5539 5542 5557 5554 5574 5593 5593 5591 5592 5598 5607 5611 5614
5492 5518 5516 5533 5535 5536 5536 5544 5553 5556 5547 5549 5550 5558 5555 5554 5555 5554 5557 5550 5541 5542 5541 5544 5551 5553 5559 5555 5550 5555 5553 5542 5528 5551 5556 5577 5574 5595 5598 5594 5595 5599 5599 5603 5608
5485 5485 5482 5504 5502 5510 5519 5535 5542 5550 5543 5546 5547 5558 5548 5556 5567 5560 5558 5552 5557 5537 5538 5532 5551 5540 5548 5552 5550 5550 5558 5557 5553 5556 5561 5563 5577 5587 5590 5590 5587 5592 5600 5606 5608
5457 5458 5473 5494 5488 5492 5515 5526 5530 5525 5539 5540 5541 5541 5534 5551 5548 5548 5550 5547 5545 5541 5535 5532 5541 5538 5555 5541 5547 5562 5576 5572 5573 5569 5570 5568 5591 5594 5591 5590 5593 5599 5600 5604 5605